Terug naar catalogus

STARLINK-35643

ActiefCommunicatieVLEO
NORAD 66456·PAYLOAD·🇺🇸 United States

Gelanceerd Nov 15, 2025 vanaf Cape Canaveral Space Force Station

Loading…

Volgende Passages (komende 24 uur)

TLE

VersSource: CelesTrak SupGP

Epoch: Sep 15, 2026, 03:30 UTC

1 66456C 25262A   26258.14631944  .00018706  00000+0  67741-3 0  2586
2 66456  43.0025 306.5471 0001365 260.3166 242.8531 15.27575549    14

Volg STARLINK-35643 in realtime met AllMySat

Download on the App Store